Location: Nelson
(41.2830°S, 173.2830°E)
Time: 18:09:53
(UTC+13:00)

ISS - Pass Details

Date: 30 January 2019
Orbit: 411 x 421 km, 51.6° (Epoch: 19 October)

Event Time Altitude Azimuth Distance (km) Brightness Sun altitude
Exits shadow 04:02:34 13° 62° (ENE) 1,321 -1.2 -22.2°
Drops below altitude 10° 04:03:46 10° 83° (E) 1,512 -0.6 -22.1°
Enters shadow 04:59:36 -72° 304° (NW) 12,541 3.7 -14.9°
Maximum altitude 05:38:28 70° 214° (SW) 454 -3.6 -9.2°
